STARLINK-32495, 62052

Orbit data source: Space-Track

STARLINK-32495, 62052 is a payload satellite owned by SpaceX/Seattle (US) in LEO that was launched on Thu, 21 Nov 2024 UTC via an FALCON 9 launch vehicle from the Air Force Eastern Test Range (AFETR). Payload-class satellites include a variety of spacecraft equipped with specific instruments for various scientific and technological missions. These include communications satellites like Starlink; space stations such as the ISS; scientific satellites like the Hubble; Earth observation satellites from companies like Planet Labs, Umbra, and HawkEye 360; GPS; miniature CubeSats for education and research; and military/defense satellites.

Loading next visibility...
Identifier
62052, 2024-216W
Orbit
LEO
Country
Flag of USUS
Related business
Manufacturer
SpaceX/Seattle
Mission
Operational Commercial Communications
Bus & Motor
STARLINK V2M, Unknown motor
Mass
730 kg wet, ~700 kg dry
Launch date (UTC)
2024-11-21 (1 year ago)
Launch vehicle
FALCON 9
Launch site
Air Force Eastern Test Range (AFETR)
Object type
Payload
Rocket body
Debris
Shape & HBR
Box + 2 Pan, 17.7 m
Radar Cross Section
33.884 m², Large (>1 m²)

Expand to show TLE details & history
Last TLE update: 12 hours ago

TLE from 12 hours ago
0 STARLINK-32495
1 62052U 24216W   26129.47069115  .00004933  00000-0  18866-3 0  9994
2 62052  42.9990 279.7809 0001207 253.2282 106.8437 15.27581800 83092
Epoch: 2026-05-09T11:17Z
TLE epoch observation values (Epoch: 2026-05-09T11:17:47.715Z)
Latitude
-0.00003°
Longitude
-116.9556°
Altitude
483.059 km
Speed
7.626 km/s
True Right ascension
18h 39m 07s
True Declination
0° 00' 00"
Sunlit
Object was in full shadow at epoch
Visualization orbit readout
Latitude
Unknown
Longitude
Unknown
Altitude
Unknown
Speed
Unknown
Apparent Right ascension
Unknown
Apparent Declination
Unknown
Sunlit
N/A
Visualization observer readout
Local Sidereal Time
07:51:04
Azimuth
Unknown
Elevation
Unknown
Doppler factor
Unknown
Orbital elements
Apogee altitude
485.817 km
Perigee altitude
484.161 km
Semi-major axis
6,863.126 km
Eccentricity
0.00012
Inclination
42.999°
RAAN
279.7809°
Arg. of periapsis
253.2282°
True anomaly
106.85694°
Mean anomaly
106.8437°
Eccentric anomaly
106.85032°
Mean motion
3.81733 °/min
Orbital period
94.31 mins
BSTAR
0.00018866
Loading maneuver chart data...
Computing Atmospheric mass density...
Loading historical data...
Loading historical data...
Loading historical data...
Loading historical data...
Loading historical data...
Loading historical data...
Loading historical data...

Documentation

Showing up to 5 results
|